FW2073 Weather Reports


Display with metric or nautical units.
time (UTC)temp
F
wind
direction
speed
MPH
gust
MPH
rain 1hr
in
rain 24hr
in
rain mn
in
humidity
%
barometer
mb
20260504081543 31 271 0.0 0.0 0.00 0.00 0.00 93 1008.0
20260504050001 28 87 0.0 0.0 0.00 0.00 0.00 94 1008.1
20260504044600 28 87 0.0 0.0 0.00 0.00 0.00 94 1008.2
20260504043115 28 87 0.0 0.0 0.00 0.00 0.00 93 1008.2
20260504041528 28 96 0.0 0.0 0.00 0.00 0.00 93 1008.2
20260504040027 28 113 0.0 0.0 0.00 0.00 0.00 93 1008.1
20260504034531 28 101 0.0 0.0 0.00 0.00 0.00 92 1008.2
20260504033036 29 89 0.0 0.0 0.00 0.00 0.00 92 1008.2
20260504031528 28 84 0.0 0.0 0.00 0.00 0.00 93 1008.2
20260504030021 29 93 0.0 0.0 0.00 0.00 0.00 93 1008.2
20260504024538 29 102 0.0 0.0 0.00 0.00 0.00 92 1008.2
20260504023017 29 96 0.0 0.0 0.00 0.00 0.00 92 1008.3
20260504021514 30 78 0.0 0.0 0.00 0.00 0.00 92 1008.4
20260504020015 30 82 0.0 0.0 0.00 0.00 0.00 91 1008.3
20260504014510 31 106 0.0 0.0 0.00 0.00 0.00 90 1008.2
20260504013012 31 96 0.0 0.0 0.00 0.00 0.00 89 1008.3
20260504011505 32 94 0.0 0.0 0.00 0.00 0.00 87 1008.1
20260504010002 33 103 0.0 0.0 0.00 0.00 0.00 86 1008.0
20260504004622 34 108 0.0 0.0 0.00 0.00 0.00 84 1007.9
20260504003100 35 111 0.0 0.0 0.00 0.00 0.00 82 1007.7
20260504001549 37 105 0.0 0.0 0.00 0.00 0.00 79 1007.6
20260504000050 39 93 0.0 0.0 0.00 0.00 0.00 76 1007.5
20260503234547 41 90 0.0 0.0 0.00 0.00 0.00 71 1007.3
20260503233017 44 79 0.0 2.0 0.00 0.00 0.00 62 1007.2
20260503231516 46 100 0.0 0.0 0.00 0.00 0.00 59 1007.2
20260503230013 46 114 0.0 3.0 0.00 0.00 0.00 58 1007.2
20260503224513 46 97 0.0 5.0 0.00 0.00 0.00 58 1007.1
20260503223012 46 122 0.0 0.0 0.00 0.00 0.00 60 1007.2
20260503221511 45 57 0.0 2.0 0.00 0.00 0.00 60 1007.2
20260503220007 45 122 0.0 1.0 0.00 0.00 0.00 60 1007.1
20260503214507 45 100 0.0 2.0 0.00 0.00 0.00 61 1007.2
20260503213013 45 120 0.0 6.0 0.00 0.01 0.00 61 1007.2
20260503211504 45 108 0.0 8.0 0.00 0.01 0.00 61 1007.2
20260503210003 44 101 0.0 10.0 0.00 0.01 0.00 61 1007.1
20260503204501 45 148 1.0 7.0 0.00 0.01 0.00 59 1007.1
20260503203003 45 94 1.0 6.0 0.00 0.01 0.00 64 1007.0
20260503201559 44 145 0.0 9.0 0.00 0.01 0.00 65 1007.1
20260503200057 44 105 0.0 9.0 0.00 0.01 0.00 67 1007.1
20260503194556 42 104 0.0 0.0 0.00 0.01 0.00 73 1007.4
20260503193058 43 105 1.0 15.0 0.00 0.02 0.00 70 1007.9
20260503191555 46 105 0.0 6.0 0.00 0.02 0.00 62 1007.4
20260503190057 45 68 0.0 14.0 0.00 0.02 0.00 62 1007.3
20260503184603 46 103 1.0 10.0 0.00 0.02 0.00 57 1007.4
20260503183052 46 129 0.0 10.0 0.00 0.02 0.00 57 1007.5
20260503181552 44 132 0.0 17.0 0.00 0.02 0.00 56 1007.6
20260503180047 44 108 3.0 16.0 0.00 0.02 0.00 57 1007.7
20260503174602 45 91 5.0 14.0 0.00 0.02 0.00 59 1007.5
20260503173048 46 156 0.0 9.0 0.00 0.02 0.00 57 1007.3
20260503171542 45 293 0.0 10.0 0.00 0.02 0.00 59 1007.6